EHI
4 3 2 1 1 2 3 5 7 6 5 6 5 3 4 6 10 15 16 12 12 18 27 36 39 30 16 8 4 3 2 1 0 0 0 0 0 0 0 0 0 0 0
1 1 1 0 0 1 2 4 7 7 7 8 5 3 4 4 6 9 9 6 6 9 16 29 36 32 22 10 4 2 1 0 0 0 0 0 0 0 0 1 0 0 0
0 0 0 0 0 0 1 4 8 10 11 9 5 2 2 2 3 3 2 2 1 2 6 14 24 29 27 16 6 2 1 0 0 0 0 0 0 0 1 2 1 0 0
0 0 0 0 0 0 1 4 8 11 11 7 3 1 1 1 1 1 1 0 0 0 1 3 9 17 22 19 11 7 5 2 0 0 0 0 0 0 0 1 0 0 0
0 0 0 0 0 0 1 3 5 6 6 4 1 0 0 0 0 0 0 0 0 0 0 0 2 6 11 13 14 15 12 7 2 0 0 0 0 0 0 0 0 0 0
0 0 0 0 0 0 0 1 1 1 1 1 0 0 0 0 0 0 0 0 0 0 0 0 0 1 3 5 9 13 13 9 6 3 2 1 1 0 0 0 0 0 0
0 0 0 0 0 0 0 0 0 0 0 0 0 0 0 0 0 0 0 0 0 0 0 0 0 0 1 1 3 5 7 7 8 7 6 5 3 2 2 2 1 0 0
0 0 0 0 0 0 0 0 0 0 0 0 0 0 0 0 0 0 0 0 0 0 0 0 0 0 0 0 0 1 2 4 6 7 8 7 6 5 6 7 5 2 1
0 0 0 0 0 0 0 0 0 0 0 0 0 0 0 0 0 0 0 0 0 0 0 0 0 0 0 0 0 0 1 1 2 4 6 7 7 7 9 11 11 7 4
0 0 0 0 0 0 0 0 0 0 0 0 0 0 0 0 0 0 0 0 0 0 0 0 0 0 0 0 0 0 0 0 0 1 3 4 5 6 7 10 13 13 11
0 0 0 0 0 0 0 0 0 0 0 0 0 0 0 0 0 0 0 0 0 0 0 0 0 0 0 0 0 0 0 0 0 0 1 1 2 3 4 5 9 14 16
0 0 0 0 0 0 0 0 0 0 0 0 0 0 0 0 0 0 0 0 0 0 0 0 0 0 0 0 0 0 0 0 0 0 0 0 0 1 1 1 4 8 12
0 0 0 0 0 0 0 0 0 0 0 0 0 0 0 0 0 0 0 0 0 0 0 0 0 0 0 0 0 0 0 0 0 0 0 0 0 0 0 0 1 2 4
0 0 0 0 0 0 0 0 0 0 0 0 0 0 0 0 0 0 0 0 0 0 0 0 0 0 0 0 0 0 0 0 0 0 0 0 0 0 0 0 0 0 1
0 0 0 0 0 0 0 0 0 0 0 0 0 0 0 0 0 0 0 0 0 0 0 0 0 0 0 0 0 0 0 0 0 0 0 0 0 0 0 0 0 0 0
0 0 0 0 0 0 0 0 0 0 0 0 0 0 0 0 0 0 0 0 0 0 0 0 0 0 0 0 0 0 0 0 0 0 0 0 0 0 0 0 0 0 0
0 0 0 0 0 0 0 0 0 0 0 0 0 0 0 0 0 0 0 0 0 0 0 0 0 0 0 0 0 0 0 0 0 0 0 0 0 0 0 0 0 0 0
0 0 0 0 0 0 0 0 0 0 0 0 0 0 0 0 0 0 0 0 0 0 0 0 0 0 0 0 0 0 0 0 0 0 0 0 0 0 0 0 0 0 0
0 0 0 0 0 0 0 0 0 0 0 0 0 0 0 0 0 0 0 0 0 0 0 0 0 0 0 0 0 0 0 0 0 0 0 0 0 0 0 0 0 0 0
0 0 0 0 0 0 0 0 0 0 0 0 0 0 0 0 0 0 0 0 0 0 0 0 0 0 0 0 0 0 0 0 0 0 0 0 0 0 0 0 0 0 0
0 0 0 0 0 0 0 0 0 0 0 0 0 0 0 0 0 0 0 0 0 0 0 0 0 0 0 0 0 0 0 0 0 0 0 0 0 0 0 0 0 0 0
0 0 0 0 0 0 0 0 0 0 0 0 0 0 0 0 0 0 0 0 0 0 0 0 0 0 0 0 0 0 0 0 0 0 0 0 0 0 0 0 0 0 0
0 0 0 0 0 0 0 0 0 0 0 0 0 0 0 0 0 0 0 0 0 0 0 0 0 0 0 0 0 0 0 0 0 0 0 0 0 0 0 0 0 0 0
0 0 0 0 0 0 0 0 0 0 0 0 0 0 0 0 0 0 0 0 0 0 0 0 0 0 0 0 0 0 0 0 0 0 0 0 0 0 0 0 0 0 0
0 0 0 0 0 0 0 0 0 0 0 0 0 0 0 0 0 0 0 0 0 0 0 0 0 0 0 0 0 0 0 0 0 0 0 0 0 0 0 0 0 0 0
0 0 0 0 0 0 0 0 0 0 0 0 0 0 0 0 0 0 0 0 0 0 0 0 0 0 0 0 0 0 0 0 0 0 0 0 0 0 0 0 0 0 0
Wind_Speed
9 8 8 9 8 6 5 4 5 5 4 4 5 4 4 4 3 1 3 3 4 5 4 4 3 4 5 6 6 4 4 4 5 5 6 6 8 9 8 8 7 9 10
9 7 7 7 7 5 3 4 4 4 5 4 5 5 5 5 4 2 1 1 3 4 5 4 4 4 4 6 6 5 3 4 5 4 4 4 4 6 9 7 7 7 6
9 6 4 4 4 4 3 4 3 3 5 5 5 6 5 5 4 4 3 1 2 4 4 4 4 5 4 4 6 6 6 5 4 4 3 3 2 3 3 7 6 6 4
6 3 2 4 5 6 5 4 5 5 6 6 7 9 8 7 7 6 5 6 5 5 4 3 4 4 5 4 5 5 5 5 5 4 3 3 1 1 3 1 3 5 4
3 1 2 4 5 6 5 4 5 5 5 6 7 8 8 7 7 8 9 8 7 7 6 4 2 3 4 4 5 5 4 4 5 4 3 3 3 4 2 2 1 2 4
1 1 2 3 4 5 4 4 4 4 4 6 6 7 8 7 9 10 9 8 5 5 5 4 3 2 2 3 4 5 5 5 5 5 4 3 3 3 3 4 3 3 4
2 2 4 5 4 4 4 4 5 5 5 5 5 6 7 8 9 9 7 8 7 6 6 6 2 2 2 3 4 4 5 5 5 5 5 4 4 2 2 3 3 3 3
4 6 7 6 5 6 5 5 5 5 5 5 6 6 7 6 6 8 9 9 7 7 8 7 5 4 4 5 4 4 5 4 4 6 6 5 5 3 3 2 2 2 1
7 8 9 9 7 7 5 5 5 5 5 6 6 6 5 6 7 7 8 8 7 9 9 9 8 7 6 6 6 5 6 5 4 4 4 4 5 5 4 3 2 2 3
9 10 10 10 9 8 6 6 5 5 5 6 6 8 6 6 6 8 8 8 8 8 8 9 9 8 8 7 7 6 7 7 6 4 5 5 4 5 5 4 3 2 3
10 10 10 9 9 9 8 7 6 6 6 6 6 6 7 7 7 7 7 7 7 8 8 9 9 9 9 9 8 8 8 8 7 6 6 6 6 5 5 5 3 2 1
9 10 10 9 9 10 10 9 8 8 7 7 6 7 7 7 8 9 8 8 8 8 9 9 9 10 10 9 9 10 11 10 9 8 8 7 6 7 5 5 5 4 3
9 9 9 9 9 9 9 10 10 10 10 9 8 7 8 8 8 8 8 8 8 8 9 9 9 9 10 10 11 10 10 10 10 10 9 9 8 7 6 6 6 4 4
7 8 7 7 7 8 8 9 9 9 10 9 9 8 9 9 8 9 9 9 9 9 9 9 9 9 10 10 11 11 11 11 10 10 10 9 9 9 8 7 7 5 4
9 9 8 7 7 7 8 8 8 8 9 9 10 10 9 9 9 9 9 9 10 11 9 9 10 10 10 11 11 10 12 11 11 11 10 11 11 12 9 7 7 7 5
11 11 10 9 9 8 8 8 8 8 8 9 10 9 9 10 10 9 9 9 9 10 10 10 11 12 12 13 12 9 8 8 10 10 11 12 10 12 14 12 9 8 8
11 11 11 9 8 8 7 8 8 9 9 9 10 10 10 11 10 12 11 11 11 11 10 11 11 12 12 15 15 14 10 9 9 10 9 12 13 13 11 11 10 8 6
11 11 11 11 10 9 8 7 9 10 10 10 11 10 11 12 12 12 12 11 10 10 10 11 12 11 13 15 14 14 11 10 10 10 9 10 11 10 10 11 11 9 8
9 9 11 12 10 10 8 9 10 10 11 11 11 12 12 13 13 13 13 12 10 10 10 11 11 11 11 13 13 13 9 8 10 10 10 10 11 12 12 11 10 10 8
9 9 10 11 10 8 8 9 11 11 11 11 12 12 12 13 14 14 13 12 10 10 11 10 10 10 11 11 12 12 8 8 8 7 8 11 11 12 13 11 10 10 9
9 10 10 10 9 8 8 9 11 11 11 11 12 13 13 13 14 13 11 11 11 10 10 10 10 9 10 10 10 11 8 7 6 5 6 6 10 11 13 11 8 9 8
10 10 9 9 8 8 8 10 11 11 11 12 13 14 14 14 13 13 13 12 10 10 9 8 9 7 6 6 7 9 10 7 5 5 4 4 11 12 12 8 7 9 8
9 10 10 10 8 8 8 10 11 11 11 13 14 14 14 14 13 13 12 10 8 7 7 6 6 6 5 3 4 6 7 7 4 2 0 3 9 10 8 8 9 8 5
9 9 11 11 10 9 10 10 10 10 11 13 14 13 13 14 13 10 9 7 7 7 6 6 5 5 4 3 1 2 4 4 4 2 3 6 8 6 6 7 6 5 4
8 9 9 10 11 11 10 10 10 10 12 13 13 13 12 13 12 11 8 7 6 4 5 6 5 5 4 4 5 4 2 1 3 4 4 4 5 5 5 6 6 6 5
8 9 10 11 11 11 10 10 9 9 11 11 11 10 10 10 10 10 9 6 5 4 4 4 4 4 2 3 4 5 5 5 3 2 4 5 6 7 7 7 7 7 7
Wind_Direction
109 110 110 110 107 100 90 74 50 34 360 14 339 333 339 333 315 351 55 10 357 339 306 292 264 231 229 231 231 224 231 234 241 252 263 253 225 209 209 208 214 217 215
116 118 123 115 105 96 89 88 53 26 4 4 313 308 330 314 301 9 6 358 8 333 324 329 299 273 248 239 234 225 226 239 230 221 244 265 252 215 208 199 207 218 209
123 121 107 89 77 68 55 56 48 25 15 349 327 338 326 311 315 333 306 351 332 302 303 316 317 309 288 256 241 228 223 236 252 228 209 245 278 306 206 192 198 194 199
128 108 50 39 24 19 17 39 44 39 23 4 348 337 323 321 328 330 328 330 310 285 273 278 313 324 315 304 277 243 231 231 244 252 227 232 285 299 342 249 201 183 189
123 92 347 9 9 3 1 23 50 45 29 6 347 337 331 332 326 325 314 308 298 277 255 228 237 303 310 331 323 316 278 246 242 245 238 228 228 218 227 265 267 187 181
246 287 331 359 16 359 354 360 16 22 11 349 332 326 327 324 315 302 292 293 291 293 294 262 196 231 294 331 323 313 297 279 265 261 256 231 211 216 221 228 224 204 205
276 327 356 352 353 348 355 355 357 359 349 331 322 325 318 307 294 299 318 327 322 318 313 311 248 234 260 281 283 288 288 284 276 269 263 260 253 243 239 236 237 207 191
342 351 345 350 356 354 357 354 353 344 337 329 324 315 296 298 315 331 327 313 302 297 300 315 308 276 254 256 261 275 277 270 266 270 270 269 270 273 264 254 255 247 207
354 348 356 357 357 357 0 357 351 341 334 325 313 297 309 332 324 313 302 302 309 311 317 320 309 295 277 258 250 252 265 270 260 257 257 258 263 272 271 270 255 212 213
354 357 353 347 352 351 356 358 352 342 331 322 322 326 334 319 313 313 308 303 299 299 303 302 297 290 283 269 252 245 249 243 238 238 238 238 245 258 268 269 276 257 200
354 347 344 348 348 346 347 347 342 335 330 331 334 330 323 320 313 303 302 308 310 309 303 301 298 293 286 278 266 252 249 250 245 236 231 228 227 236 249 255 249 257 254
349 344 346 347 344 341 340 336 337 332 335 336 331 324 320 315 312 311 313 309 305 304 302 299 297 293 288 282 275 264 254 242 239 235 228 226 219 219 232 242 242 234 221
348 347 347 344 338 338 334 333 330 331 332 327 322 320 316 312 309 308 305 303 299 296 296 293 292 291 291 289 283 276 267 255 243 235 226 220 213 212 214 221 228 232 228
351 347 344 339 336 331 333 328 325 328 324 324 319 313 309 308 306 303 301 299 296 293 289 288 287 285 283 283 282 277 271 264 255 242 233 223 213 208 206 212 215 214 220
341 341 337 332 331 331 329 324 325 324 322 317 312 307 304 303 299 297 296 293 292 292 293 291 286 283 279 272 270 272 272 270 264 254 242 232 219 207 202 205 206 204 207
341 336 333 333 329 328 321 322 320 319 316 310 306 303 300 299 298 296 295 294 294 293 288 284 282 279 277 282 288 287 285 283 277 266 253 244 232 215 200 202 199 199 205
337 337 337 328 322 320 321 319 319 321 316 310 306 306 306 305 304 305 305 301 299 295 289 284 279 275 272 272 268 266 266 264 264 259 252 245 234 213 199 193 187 192 202
341 338 328 322 320 324 323 321 321 320 318 316 313 313 311 307 306 303 300 298 297 292 288 282 279 275 273 268 258 254 257 257 253 251 244 240 245 227 200 192 195 199 198
339 328 321 318 319 319 323 322 317 319 320 319 317 316 313 308 305 302 300 298 295 291 288 285 279 275 273 267 257 247 257 252 252 247 237 231 232 234 206 192 190 193 196
331 324 319 318 317 323 326 318 315 317 317 320 318 314 309 306 304 299 297 296 294 291 290 287 284 281 277 268 255 244 250 247 248 243 235 231 230 224 200 192 188 192 193
328 326 324 321 321 324 326 317 315 318 322 320 315 310 308 305 300 296 296 296 294 293 292 289 286 282 277 270 253 237 236 238 241 237 229 219 208 208 199 192 186 191 185
330 330 323 321 324 329 328 319 318 323 322 318 314 312 310 307 305 302 298 295 294 294 293 292 293 289 282 270 253 230 224 231 236 238 232 201 181 186 189 187 174 171 174
330 326 325 324 329 334 332 323 324 325 322 318 315 313 311 307 303 299 297 298 297 295 297 299 302 304 300 273 237 223 214 212 215 215 212 164 170 176 183 183 164 166 180
326 327 327 325 329 335 337 332 328 325 320 317 315 314 312 309 306 301 297 299 302 303 307 312 314 315 321 334 319 206 186 158 149 131 121 147 163 185 180 164 175 197 202
323 327 325 328 333 340 337 331 328 328 323 318 315 314 311 308 305 302 299 299 301 301 300 312 316 321 338 16 20 16 38 119 140 153 157 165 172 189 192 184 186 198 207
325 328 332 334 335 334 331 328 330 332 322 315 314 312 310 308 304 305 305 289 277 254 251 262 284 304 341 4 29 52 60 66 80 156 187 194 193 196 198 197 195 198 203